• In Russia
  • List of Countries
  • For 7 days
  • Water Temperature
  • Satellite Maps
  • Weather Map
  • Weather Widgets
  • user-avatar
    Login

    Hourly Weather Kocherginka

    Today, 25 April, Thursday

    Time Temperature Precipitation Wind Pressure Humidity
    00:00 +15°C° 0 mm 2 mps 749 mmHg 54%
    01:00 +14°C° 0 mm 2 mps 750 mmHg 55%
    02:00 +14°C° 0 mm 2 mps 750 mmHg 57%
    03:00 +13°C° 0 mm 2 mps 750 mmHg 58%
    04:00 +13°C° 0 mm 2 mps 750 mmHg 60%
    05:00 +13°C° 0 mm 2 mps 750 mmHg 61%
    06:00 +12°C° 0 mm 2 mps 750 mmHg 63%
    07:00 +14°C° 0 mm 2 mps 750 mmHg 58%
    08:00 +16°C° 0 mm 2 mps 750 mmHg 53%
    09:00 +18°C° 0 mm 2 mps 750 mmHg 48%
    10:00 +19°C° 0 mm 3 mps 750 mmHg 44%
    11:00 +21°C° 0 mm 3 mps 750 mmHg 39%
    12:00 +22°C° 0 mm 3 mps 750 mmHg 35%
    13:00 +24°C° 0 mm 3 mps 749 mmHg 34%
    14:00 +24°C° 0 mm 3 mps 749 mmHg 33%
    15:00 +25°C° 0 mm 3 mps 749 mmHg 31%
    16:00 +24°C° 0 mm 2 mps 748 mmHg 33%
    17:00 +24°C° 0 mm 2 mps 748 mmHg 36%
    18:00 +24°C° 0 mm 2 mps 748 mmHg 38%
    19:00 +21°C° 0 mm 2 mps 748 mmHg 41%
    20:00 +20°C° 0 mm 2 mps 748 mmHg 45%
    21:00 +18°C° 0 mm 2 mps 748 mmHg 49%
    22:00 +17°C° 0 mm 2 mps 748 mmHg 50%
    23:00 +17°C° 0 mm 2 mps 748 mmHg 52%

    Tomorrow, 26 April, Friday

    Time Temperature Precipitation Wind Pressure Humidity
    00:00 +16°C° 0 mm 2 mps 748 mmHg 54%
    01:00 +16°C° 0 mm 2 mps 747 mmHg 55%
    02:00 +15°C° 0 mm 2 mps 747 mmHg 56%
    03:00 +15°C° 0 mm 2 mps 747 mmHg 58%
    04:00 +15°C° 0 mm 2 mps 747 mmHg 59%
    05:00 +15°C° 0 mm 2 mps 747 mmHg 61%
    06:00 +15°C° 0 mm 2 mps 747 mmHg 62%
    07:00 +16°C° 0.1 mm 2 mps 747 mmHg 60%
    08:00 +17°C° 0.1 mm 2 mps 747 mmHg 57%
    09:00 +17°C° 0.1 mm 2 mps 748 mmHg 54%
    10:00 +19°C° 0 mm 1 mps 748 mmHg 51%
    11:00 +20°C° 0 mm 1 mps 747 mmHg 47%
    12:00 +21°C° 0 mm 1 mps 747 mmHg 43%
    13:00 +20°C° 0 mm 1 mps 747 mmHg 46%
    14:00 +19°C° 0 mm 2 mps 747 mmHg 49%
    15:00 +19°C° 0 mm 2 mps 747 mmHg 52%
    16:00 +19°C° 0.1 mm 2 mps 746 mmHg 52%
    17:00 +20°C° 0.1 mm 1 mps 746 mmHg 52%
    18:00 +20°C° 0.1 mm 1 mps 746 mmHg 52%
    19:00 +19°C° 0 mm 1 mps 746 mmHg 53%
    20:00 +16°C° 0 mm 1 mps 746 mmHg 55%
    21:00 +15°C° 0 mm 1 mps 746 mmHg 57%
    22:00 +15°C° 0 mm 1 mps 746 mmHg 60%
    23:00 +14°C° 0 mm 1 mps 745 mmHg 62%

    Day after tomorrow, 27 April, Saturday

    Time Temperature Precipitation Wind Pressure Humidity
    00:00 +14°C° 0 mm 1 mps 745 mmHg 64%
    01:00 +14°C° 0 mm 1 mps 745 mmHg 65%
    02:00 +13°C° 0 mm 0 mps 745 mmHg 65%
    03:00 +12°C° 0 mm 0 mps 745 mmHg 66%
    04:00 +12°C° 0 mm 0 mps 744 mmHg 67%
    05:00 +13°C° 0 mm 1 mps 744 mmHg 68%
    06:00 +13°C° 0 mm 1 mps 744 mmHg 69%
    07:00 +14°C° 0 mm 1 mps 744 mmHg 66%
    08:00 +16°C° 0 mm 1 mps 743 mmHg 63%
    09:00 +17°C° 0 mm 2 mps 743 mmHg 59%
    10:00 +19°C° 0 mm 2 mps 743 mmHg 53%
    11:00 +20°C° 0 mm 3 mps 743 mmHg 46%
    12:00 +21°C° 0 mm 3 mps 743 mmHg 39%
    13:00 +21°C° 0 mm 3 mps 742 mmHg 39%
    14:00 +21°C° 0 mm 4 mps 742 mmHg 40%
    15:00 +21°C° 0 mm 4 mps 741 mmHg 40%
    16:00 +20°C° 0 mm 4 mps 741 mmHg 43%
    17:00 +20°C° 0 mm 3 mps 740 mmHg 46%
    18:00 +20°C° 0 mm 3 mps 740 mmHg 50%
    19:00 +19°C° 0 mm 3 mps 740 mmHg 53%
    20:00 +18°C° 0 mm 3 mps 740 mmHg 57%
    21:00 +17°C° 0 mm 3 mps 740 mmHg 61%
    22:00 +16°C° 0 mm 3 mps 739 mmHg 64%
    23:00 +14°C° 0 mm 3 mps 739 mmHg 67%

    28 April, Sunday

    Time Temperature Precipitation Wind Pressure Humidity
    00:00 +13°C° 0 mm 3 mps 739 mmHg 69%
    01:00 +12°C° 0 mm 3 mps 738 mmHg 70%
    02:00 +12°C° 0 mm 3 mps 738 mmHg 71%
    03:00 +11°C° 0 mm 3 mps 738 mmHg 71%
    04:00 +11°C° 0 mm 3 mps 738 mmHg 74%
    05:00 +11°C° 0 mm 3 mps 737 mmHg 76%
    06:00 +11°C° 0 mm 3 mps 737 mmHg 78%
    07:00 +12°C° 0 mm 3 mps 737 mmHg 77%
    08:00 +13°C° 0 mm 4 mps 736 mmHg 76%
    09:00 +14°C° 0 mm 4 mps 736 mmHg 74%
    10:00 +13°C° 0.8 mm 4 mps 736 mmHg 79%
    11:00 +13°C° 0.8 mm 5 mps 737 mmHg 83%
    12:00 +11°C° 0.8 mm 6 mps 737 mmHg 87%
    13:00 +11°C° 0 mm 6 mps 738 mmHg 82%
    14:00 +10°C° 0 mm 7 mps 738 mmHg 78%
    15:00 +10°C° 0 mm 7 mps 739 mmHg 74%
    16:00 +9°C° 0 mm 7 mps 739 mmHg 71%
    17:00 +9°C° 0 mm 7 mps 740 mmHg 69%
    18:00 +9°C° 0 mm 7 mps 741 mmHg 66%
    19:00 +8°C° 0 mm 6 mps 742 mmHg 66%
    20:00 +7°C° 0 mm 5 mps 742 mmHg 66%
    21:00 +6°C° 0 mm 5 mps 743 mmHg 66%
    22:00 +5°C° 0 mm 5 mps 744 mmHg 68%
    23:00 +4°C° 0 mm 4 mps 744 mmHg 69%

    29 April, Monday

    Time Temperature Precipitation Wind Pressure Humidity
    00:00 +3°C° 0 mm 4 mps 744 mmHg 71%
    01:00 +3°C° 0 mm 4 mps 745 mmHg 70%
    02:00 +1°C° 0 mm 4 mps 745 mmHg 69%
    03:00 0°C° 0 mm 5 mps 745 mmHg 68%
    04:00 0°C° 0 mm 5 mps 746 mmHg 68%
    05:00 0°C° 0 mm 5 mps 746 mmHg 67%
    06:00 -1°C° 0 mm 5 mps 747 mmHg 66%
    07:00 0°C° 0 mm 5 mps 747 mmHg 58%
    08:00 +1°C° 0 mm 6 mps 747 mmHg 50%
    09:00 +3°C° 0 mm 6 mps 748 mmHg 42%
    10:00 +3°C° 0 mm 6 mps 748 mmHg 41%
    11:00 +4°C° 0 mm 6 mps 748 mmHg 39%
    12:00 +5°C° 0 mm 6 mps 748 mmHg 38%
    13:00 +7°C° 0 mm 5 mps 747 mmHg 38%
    14:00 +7°C° 0 mm 5 mps 747 mmHg 38%
    15:00 +8°C° 0 mm 5 mps 747 mmHg 38%
    16:00 +7°C° 0 mm 5 mps 747 mmHg 39%
    17:00 +7°C° 0 mm 4 mps 747 mmHg 40%
    18:00 +7°C° 0 mm 4 mps 747 mmHg 41%
    19:00 +7°C° 0 mm 3 mps 747 mmHg 45%
    20:00 +5°C° 0 mm 3 mps 747 mmHg 49%
    21:00 +5°C° 0 mm 2 mps 747 mmHg 53%
    22:00 +4°C° 0 mm 2 mps 748 mmHg 56%
    23:00 +4°C° 0 mm 2 mps 748 mmHg 58%

    30 April, Tuesday

    Time Temperature Precipitation Wind Pressure Humidity
    00:00 +3°C° 0 mm 2 mps 748 mmHg 60%
    01:00 +3°C° 0 mm 2 mps 748 mmHg 62%
    02:00 +2°C° 0 mm 2 mps 748 mmHg 63%
    03:00 +2°C° 0 mm 2 mps 748 mmHg 64%
    04:00 +2°C° 0 mm 2 mps 748 mmHg 65%
    05:00 +1°C° 0 mm 2 mps 748 mmHg 66%
    06:00 +1°C° 0 mm 2 mps 749 mmHg 66%
    07:00 +2°C° 0 mm 3 mps 749 mmHg 59%
    08:00 +4°C° 0 mm 3 mps 749 mmHg 53%
    09:00 +5°C° 0 mm 3 mps 749 mmHg 46%
    10:00 +7°C° 0 mm 3 mps 749 mmHg 43%
    11:00 +8°C° 0 mm 3 mps 748 mmHg 40%
    12:00 +9°C° 0 mm 3 mps 748 mmHg 37%
    13:00 +9°C° 0 mm 3 mps 748 mmHg 37%
    14:00 +9°C° 0 mm 3 mps 747 mmHg 36%
    15:00 +10°C° 0 mm 3 mps 747 mmHg 36%
    16:00 +10°C° 0 mm 3 mps 747 mmHg 37%
    17:00 +9°C° 0 mm 3 mps 747 mmHg 39%
    18:00 +9°C° 0 mm 3 mps 747 mmHg 40%
    19:00 +8°C° 0 mm 2 mps 747 mmHg 44%
    20:00 +7°C° 0 mm 2 mps 747 mmHg 48%
    21:00 +6°C° 0 mm 2 mps 747 mmHg 52%
    22:00 +5°C° 0 mm 2 mps 747 mmHg 53%
    23:00 +5°C° 0 mm 2 mps 747 mmHg 54%
    Show more